Regional Weather Roundup
Issued by NWS

Home | Current Version | Previous Version | Graphics & Text | Print | Product List | Glossary On
Versions: 1 2 3 4 5 6 7 8 9 10 11 12 13 14 15 16 17 18 19 20 21 22 23 24 25 26 27 28 29 30 31 32 33 34 35 36 37 38 39 40 41 42 43 44 45 46 47 48 49 50
000
ASUS43 KFSD 152002
RWRSD

WEATHER ROUNDUP FOR SOUTH DAKOTA
NATIONAL WEATHER SERVICE SIOUX FALLS SD
300 PM CDT MON SEP 15 2014

NOTE: "FAIR" INDICATES FEW OR NO CLOUDS BELOW 12,000 FEET WITH NO
SIGNIFICANT WEATHER AND/OR OBSTRUCTIONS TO VISIBILITY.


SDZ001>005-009-010-012>017-152100-
NORTHWEST AND NORTH CENTRAL SOUTH DAKOTA

CITY           SKY/WX    TMP DP  RH WIND       PRES   REMARKS
FAITH            N/A     63  40  42 S12       30.22F
MOBRIDGE       SUNNY     63  33  32 S8        30.22F
$$

SDZ012>016-024>037-041>051-057-063-072>074-152100-
SOUTHWEST AND SOUTH CENTRAL SOUTH DAKOTA

CITY           SKY/WX    TMP DP  RH WIND       PRES   REMARKS
RAPID CTY ARPT SUNNY     64  44  48 S15G25    30.22F
PIERRE         SUNNY     64  36  35 CALM      30.25F
CUSTER         SUNNY     62  40  44 SW8       30.26F
ELLSWORTH AFB  SUNNY     64  44  48 S22       30.21F
PHILIP         SUNNY     66  39  37 S15       30.24F
PINE RIDGE     SUNNY     65  43  44 S9        30.25F
WINNER         FAIR      64  35  34 N6        30.28F
$$

SDZ004>011-016>023-039-040-152100-
NORTHEAST SOUTH DAKOTA

CITY           SKY/WX    TMP DP  RH WIND       PRES   REMARKS
ABERDEEN       SUNNY     63  35  35 N8        30.25F
WATERTOWN      MOSUNNY   59  35  40 W7        30.25S
SISSETON         N/A     63  31  30 NE5       30.23F
$$

SDZ017-020-022-023-036>040-048>070-152100-
SOUTHEAST SOUTH DAKOTA

CITY           SKY/WX    TMP DP  RH WIND       PRES   REMARKS
SIOUX FALLS    PTSUNNY   60  43  53 N8        30.26S
HURON          SUNNY     63  34  33 N8        30.26F
CHAMBERLAIN    SUNNY     63  33  32 NE6       30.26F
MITCHELL       SUNNY     62  36  37 VRB6      30.27F
YANKTON        MOSUNNY   61  39  44 NW9       30.27S
$$

ABBREVIATIONS USED IN REMARKS
   TC - TEMPERATURE IN CELSIUS
  WCI - WIND CHILL INDEX
   HX - HEAT INDEX
  VSB - VISIBILITY




USA.gov is the U.S. government's official web portal to all federal, state and local government web resources and services.